Location: Deurze
(52.9838°N, 6.6090°E)
Time: 18:56:25
(UTC+00:00)

Cosmos 2278 Rocket - Pass Details

Date: 11 March 2026
Orbit: 838 x 846 km, 71.0° (Epoch: 20 April)

Event Time Altitude Azimuth Distance (km) Brightness Sun altitude
Rises 20:15:48 0° 258° (WSW) 3,398 6.0 -24.8°
Reaches altitude 10° 20:18:43 10° 272° (W) 2,468 5.4 -25.1°
Maximum altitude 20:23:16 24° 326° (NW) 1,679 4.4 -25.7°
Drops below altitude 10° 20:27:51 10° 19° (NNE) 2,479 4.8 -26.3°
Sets 20:30:48 0° 33° (NNE) 3,418 5.4 -26.7°
